Weather History for Gaziantep, Turkey

Change the Weather History Date:

Thursday, July 4, 2013

  Actual Average Record
Temperature  
Mean Temperature 84 °F -  
Max Temperature 95 °F 95 °F 105 °F (2003)
Min Temperature 72 °F 70 °F 60 °F (2012)
Cooling Degree Days 18    
Growing Degree Days 34 (Base 50)    
Moisture  
Dew Point 45 °F    
Average Humidity 29    
Maximum Humidity 53    
Minimum Humidity 5    
Precipitation  
Precipitation 0.00 in - - ()
Sea Level Pressure  
Sea Level Pressure 29.71 in    
Wind  
Wind Speed 7 mph ()    
Max Wind Speed 15 mph    
Max Gust Speed -    
Visibility 6.0 miles    
Events      
Averages and records for this station are not official NWS values.
T = Trace of Precipitation, MM = Missing Value Source: Averaged Metar Reports

Daily Weather History Graph

Daily Weather History Graph

Search for Another Location

Airport:

Trip Planner

Search our weather history database for the weather conditions in past years. The results will help you decide how hot, cold, wet, or windy it might be!

Date:

Astronomy

Jul. 04, 2013 Rise Set
Actual Time 5:15 AM EEST 7:53 PM EEST
Civil Twilight 4:45 AM EEST 8:23 PM EEST
Nautical Twilight 4:07 AM EEST 9:01 PM EEST
Astronomical Twilight 3:24 AM EEST 9:44 PM EEST
Moon 2:16 AM EEST (7/4) 4:40 PM EEST (7/4)
Length of Visible Light 15h 38m
Length of Day
14h 37m
Waning Crescent, 13% of the Moon is Illuminated
Jul 4
Waning Crescent
Jul 8
New
Jul 16
First Quarter
Jul 22
Full
Jul 29
Last Quarter

Hourly Weather History & Observations

Time (EEST) Temp. Heat Index Dew Point Humidity Pressure Visibility Wind Dir Wind Speed Gust Speed Precip Events Conditions
12:20 AM 71.6 °F - 53.6 °F 53% 29.74 in - Calm Calm - N/A   Clear
12:50 AM 73.4 °F - 55.4 °F 53% 29.71 in - West 2.3 mph - N/A   Clear
1:20 AM 75.2 °F - 53.6 °F 47% 29.71 in - West 3.5 mph - N/A   Clear
1:50 AM 77.0 °F - 53.6 °F 44% 29.71 in - NW 3.5 mph - N/A   Clear
2:20 AM 77.0 °F - 51.8 °F 41% 29.71 in - NNW 8.1 mph - N/A   Clear
2:50 AM 77.0 °F - 53.6 °F 44% 29.71 in - NNW 8.1 mph - N/A   Clear
3:00 AM 77 °F - 52 °F 31% 29.56 in 6 mi NNW 8.1 mph - -  
3:20 AM 75.2 °F - 53.6 °F 47% 29.71 in - NNW 13.8 mph - N/A   Clear
3:50 AM 75.2 °F - 51.8 °F 44% 29.71 in - NNW 15.0 mph - N/A   Clear
4:20 AM 75.2 °F - 51.8 °F 44% 29.71 in - NNW 9.2 mph - N/A   Clear
4:50 AM 75.2 °F - 51.8 °F 44% 29.71 in - NNW 8.1 mph - N/A   Clear
5:20 AM 73.4 °F - 50.0 °F 44% 29.71 in - NW 3.5 mph - N/A   Clear
5:50 AM 73.4 °F - 50.0 °F 44% 29.74 in - NNW 4.6 mph - N/A   Clear
6:20 AM 73.4 °F - 50.0 °F 44% 29.74 in - North 3.5 mph - N/A   Clear
6:50 AM 77.0 °F - 46.4 °F 34% 29.74 in - NNW 6.9 mph - N/A   Clear
7:20 AM 78.8 °F - 46.4 °F 32% 29.74 in - Variable 2.3 mph - N/A   Clear
7:50 AM 80.6 °F - 46.4 °F 30% 29.74 in - North 5.8 mph - N/A   Clear
8:20 AM 80.6 °F - 44.6 °F 28% 29.74 in - NW 9.2 mph - N/A   Clear
8:50 AM 82.4 °F - 41.0 °F 23% 29.74 in - NW 12.7 mph - N/A   Clear
9:00 AM 83 °F - 42 °F 14% 29.60 in 6 mi NW 12.7 mph - -  
9:20 AM 84.2 °F - 41.0 °F 22% 29.74 in - NNW 11.5 mph - N/A   Clear
9:50 AM 84.2 °F - 39.2 °F 20% 29.74 in - NNW 11.5 mph - N/A   Clear
10:20 AM 86.0 °F - 41.0 °F 20% 29.74 in - NW 11.5 mph - N/A   Clear
10:50 AM 86.0 °F - 35.6 °F 17% 29.74 in - NW 8.1 mph - N/A   Clear
11:20 AM 87.8 °F - 35.6 °F 16% 29.74 in - North 5.8 mph - N/A   Clear
11:50 AM 89.6 °F - 35.6 °F 15% 29.74 in - Variable 5.8 mph - N/A   Clear
12:20 PM 89.6 °F - 33.8 °F 14% 29.74 in - Variable 2.3 mph - N/A   Clear
12:50 PM 91.4 °F - 32.0 °F 12% 29.74 in - WNW 9.2 mph - N/A   Clear
1:20 PM 93.2 °F - 33.8 °F 12% 29.74 in - WNW 8.1 mph - N/A   Clear
1:50 PM 93.2 °F - 30.2 °F 11% 29.71 in - West 9.2 mph - N/A   Clear
2:20 PM 93.2 °F - 30.2 °F 11% 29.71 in - NNW 11.5 mph - N/A   Clear
2:50 PM 93.2 °F - 32.0 °F 11% 29.71 in - NW 9.2 mph - N/A   Clear
3:00 PM 93 °F - 31 °F 5% 29.56 in 6 mi NW 9.2 mph - -  
3:20 PM 93.2 °F - 32.0 °F 11% 29.71 in - NW 10.4 mph - N/A   Clear
3:50 PM 95.0 °F - 35.6 °F 12% 29.71 in - West 8.1 mph - N/A   Clear
4:20 PM 95.0 °F - 35.6 °F 12% 29.71 in - West 9.2 mph - N/A   Clear
4:50 PM 93.2 °F - 37.4 °F 14% 29.68 in - Variable 6.9 mph - N/A   Clear
5:20 PM 93.2 °F - 39.2 °F 15% 29.68 in - West 10.4 mph - N/A   Clear
5:50 PM 93.2 °F - 42.8 °F 17% 29.68 in - West 10.4 mph - N/A   Clear
6:20 PM 93.2 °F - 42.8 °F 17% 29.68 in - WNW 11.5 mph - N/A   Clear
6:50 PM 91.4 °F - 42.8 °F 18% 29.68 in - West 9.2 mph - N/A   Clear
7:20 PM 87.8 °F - 48.2 °F 25% 29.68 in - West 10.4 mph - N/A   Clear
7:50 PM 86.0 °F - 51.8 °F 31% 29.71 in - West 12.7 mph - N/A   Clear
8:20 PM 86.0 °F 84.2 °F 53.6 °F 33% 29.71 in - WNW 13.8 mph - N/A   Clear
8:50 PM 84.2 °F 83.5 °F 57.2 °F 40% 29.71 in - West 15.0 mph - N/A   Clear
9:00 PM 83 °F - 56 °F 29% 29.56 in 6 mi West 15.0 mph - -  
9:20 PM 80.6 °F 80.8 °F 57.2 °F 45% 29.71 in - West 11.5 mph - N/A   Clear
9:50 PM 78.8 °F - 57.2 °F 47% 29.74 in - West 4.6 mph - N/A   Clear
10:20 PM 77.0 °F - 55.4 °F 47% 29.74 in - West 3.5 mph - N/A   Clear
10:50 PM 77.0 °F - 55.4 °F 47% 29.74 in - Calm Calm - N/A   Clear
11:20 PM 75.2 °F - 55.4 °F 50% 29.74 in - Variable 2.3 mph - N/A   Clear
11:50 PM 75.2 °F - 55.4 °F 50% 29.74 in - WSW 5.8 mph - N/A   Clear